User: anonymous   Login
Location: Caixon
(43.4106°N, 0.0273°E)
Time: 07:36:48
(UTC+00:00)
Language:

Cosmos 2298 Rocket - Orbit

View from above orbital plane
View from above orbital plane
View from above satellite
View from above satellite

Ground track
Ground track

The orbit data is extracted from the following two-line orbital elements,

1 23432U 94083B   22024.66561542  .00000026  00000-0  18773-4 0  9991
2 23432  74.0323 101.0603 0006641 264.0246 204.4063 14.33580316417169
Epoch (UTC): 24 January 2022 15:58:29
Eccentricity: 0.0006641
inclination: 74.0323°
perigee height: 775 km
apogee height: 784 km
right ascension of ascending node: 101.0603°
argument of perigee: 264.0246°
revolutions per day: 14.33580316
mean anomaly at epoch: 204.4063°
orbit number at epoch: 41716

The dashed part of the orbit path shows where the satellite is in the earth's shadow,  

DLR